Time,TemperatureF,DewpointF,PressureIn,WindDirection,WindDirectionDegrees,WindSpeedMPH,WindSpeedGustMPH,Humidity,HourlyPrecipIn,Conditions,Clouds,dailyrainin,SoftwareType,DateUTC
2013-08-02 00:00:00,69.7,65.3,29.97,SSW,199,1.0,5.0,86,0.00,,---,0.00,VWS V14.01,2013-08-02 05:00:00,
2013-08-02 00:03:00,69.7,65.3,29.97,SW,216,0.0,5.0,86,0.00,,---,0.00,VWS V14.01,2013-08-02 05:03:00,
2013-08-02 00:05:00,69.6,65.2,29.98,SSW,211,1.0,5.0,86,0.00,,---,0.00,VWS V14.01,2013-08-02 05:05:00,
2013-08-02 00:08:00,69.6,65.2,29.98,West,264,0.0,6.0,86,0.00,,---,0.00,VWS V14.01,2013-08-02 05:08:00,
2013-08-02 00:10:00,69.5,65.5,29.98,WSW,246,1.0,6.0,87,0.00,,---,0.00,VWS V14.01,2013-08-02 05:10:00,
2013-08-02 00:13:00,69.5,65.5,29.98,SW,218,0.0,5.0,87,0.00,,---,0.00,VWS V14.01,2013-08-02 05:13:00,
2013-08-02 00:15:00,69.4,65.4,29.97,SW,219,0.0,5.0,87,0.00,,---,0.00,VWS V14.01,2013-08-02 05:15:00,
2013-08-02 00:18:00,69.3,65.3,29.97,SW,220,0.0,4.0,87,0.00,,---,0.00,VWS V14.01,2013-08-02 05:18:00,
2013-08-02 00:20:00,69.2,65.2,29.97,SSW,212,0.0,5.0,87,0.00,,---,0.00,VWS V14.01,2013-08-02 05:20:00,
2013-08-02 00:23:00,69.2,65.2,29.97,SSW,203,0.0,4.0,87,0.00,,---,0.00,VWS V14.01,2013-08-02 05:23:00,
2013-08-02 00:25:00,69.1,65.4,29.97,SSW,204,1.0,4.0,88,0.00,,---,0.00,VWS V14.01,2013-08-02 05:25:00,
2013-08-02 00:28:00,69.0,65.3,29.97,SSW,205,0.0,1.0,88,0.00,,---,0.00,VWS V14.01,2013-08-02 05:28:00,
2013-08-02 00:30:00,68.9,65.2,29.97,SSW,205,0.0,1.0,88,0.00,,---,0.00,VWS V14.01,2013-08-02 05:30:00,
2013-08-02 00:33:00,68.7,65.3,29.97,SSW,205,0.0,1.0,89,0.00,,---,0.00,VWS V14.01,2013-08-02 05:33:00,
2013-08-02 00:35:00,68.6,65.2,29.96,SSW,206,0.0,4.0,89,0.00,,---,0.00,VWS V14.01,2013-08-02 05:35:00,
2013-08-02 00:38:00,68.4,65.4,29.96,SSW,206,1.0,1.0,90,0.00,,---,0.00,VWS V14.01,2013-08-02 05:38:00,
2013-08-02 00:40:00,68.3,65.3,29.96,West,267,2.0,4.0,90,0.00,,---,0.00,VWS V14.01,2013-08-02 05:40:00,
2013-08-02 00:43:00,68.2,65.2,29.97,West,265,0.0,3.0,90,0.00,,---,0.00,VWS V14.01,2013-08-02 05:43:00,
2013-08-02 00:45:00,68.2,65.2,29.97,SW,223,0.0,4.0,90,0.00,,---,0.00,VWS V14.01,2013-08-02 05:45:00,
2013-08-02 00:48:00,68.1,65.4,29.97,SW,214,0.0,5.0,91,0.00,,---,0.00,VWS V14.01,2013-08-02 05:48:00,
2013-08-02 00:50:00,68.1,65.4,29.97,WSW,240,2.0,5.0,91,0.00,,---,0.00,VWS V14.01,2013-08-02 05:50:00,
2013-08-02 00:54:00,68.1,65.4,29.97,WSW,240,0.0,4.0,91,0.00,,---,0.00,VWS V14.01,2013-08-02 05:54:00,
2013-08-02 00:55:00,68.1,65.4,29.97,WSW,240,1.0,4.0,91,0.00,,---,0.00,VWS V14.01,2013-08-02 05:55:00,
2013-08-02 00:58:00,68.0,65.3,29.97,WSW,238,0.0,4.0,91,0.00,,---,0.00,VWS V14.01,2013-08-02 05:58:00,
2013-08-02 01:00:00,68.0,65.3,29.97,WSW,238,2.0,4.0,91,0.00,,---,0.00,VWS V14.01,2013-08-02 06:00:00,
2013-08-02 01:04:00,67.9,65.2,29.97,WSW,239,0.0,4.0,91,0.00,,---,0.00,VWS V14.01,2013-08-02 06:04:00,
2013-08-02 01:05:00,67.9,65.2,29.97,WSW,239,0.0,4.0,91,0.00,,---,0.00,VWS V14.01,2013-08-02 06:05:00,
2013-08-02 01:09:00,67.8,65.4,29.97,WSW,239,0.0,1.0,92,0.00,,---,0.00,VWS V14.01,2013-08-02 06:09:00,
2013-08-02 01:10:00,67.8,65.4,29.98,WSW,239,0.0,1.0,92,0.00,,---,0.00,VWS V14.01,2013-08-02 06:10:00,
2013-08-02 01:14:00,67.8,65.4,29.98,WSW,239,0.0,0.0,92,0.00,,---,0.00,VWS V14.01,2013-08-02 06:14:00,
2013-08-02 01:15:00,67.8,65.4,29.98,WSW,239,0.0,2.0,92,0.00,,---,0.00,VWS V14.01,2013-08-02 06:15:00,
2013-08-02 01:19:00,67.8,65.4,29.98,WSW,239,0.0,1.0,92,0.00,,---,0.00,VWS V14.01,2013-08-02 06:19:00,
2013-08-02 01:20:00,67.8,65.4,29.98,WSW,239,0.0,1.0,92,0.00,,---,0.00,VWS V14.01,2013-08-02 06:20:00,
2013-08-02 01:24:00,67.8,65.4,29.98,SW,233,4.0,4.0,92,0.00,,---,0.00,VWS V14.01,2013-08-02 06:24:00,
2013-08-02 01:25:00,67.8,65.4,29.98,SW,223,0.0,4.0,92,0.00,,---,0.00,VWS V14.01,2013-08-02 06:25:00,
2013-08-02 01:29:00,67.9,65.5,29.98,SW,223,0.0,2.0,92,0.00,,---,0.00,VWS V14.01,2013-08-02 06:29:00,
2013-08-02 01:30:00,67.9,65.5,29.98,SW,223,0.0,2.0,92,0.00,,---,0.00,VWS V14.01,2013-08-02 06:30:00,
2013-08-02 01:34:00,68.0,65.6,29.98,SW,220,0.0,4.0,92,0.00,,---,0.00,VWS V14.01,2013-08-02 06:34:00,
2013-08-02 01:35:00,68.0,65.6,29.98,SW,220,0.0,4.0,92,0.00,,---,0.00,VWS V14.01,2013-08-02 06:35:00,
2013-08-02 01:39:00,68.1,65.4,29.98,SSW,194,0.0,8.0,91,0.00,,---,0.00,VWS V14.01,2013-08-02 06:39:00,
2013-08-02 01:40:00,68.2,65.5,29.98,SSW,210,0.0,8.0,91,0.00,,---,0.00,VWS V14.01,2013-08-02 06:40:00,
2013-08-02 01:44:00,68.3,65.6,29.99,SW,224,0.0,7.0,91,0.00,,---,0.00,VWS V14.01,2013-08-02 06:44:00,
2013-08-02 01:45:00,68.3,65.6,29.99,SW,225,2.0,7.0,91,0.00,,---,0.00,VWS V14.01,2013-08-02 06:45:00,
2013-08-02 01:49:00,68.4,65.4,29.99,SSW,205,0.0,5.0,90,0.00,,---,0.00,VWS V14.01,2013-08-02 06:49:00,
2013-08-02 01:50:00,68.5,65.5,29.99,SW,224,0.0,6.0,90,0.00,,---,0.00,VWS V14.01,2013-08-02 06:50:00,
2013-08-02 01:54:00,68.6,65.6,29.99,SW,218,2.0,5.0,90,0.00,,---,0.00,VWS V14.01,2013-08-02 06:54:00,
2013-08-02 01:55:00,68.6,65.6,30.00,SSW,210,0.0,5.0,90,0.00,,---,0.00,VWS V14.01,2013-08-02 06:55:00,
2013-08-02 01:59:00,68.7,65.3,29.99,SSW,193,4.0,8.0,89,0.00,,---,0.00,VWS V14.01,2013-08-02 06:59:00,
2013-08-02 02:00:00,68.8,65.4,29.99,SW,223,0.0,9.0,89,0.00,,---,0.00,VWS V14.01,2013-08-02 07:00:00,
2013-08-02 02:04:00,68.9,65.5,29.99,SW,229,0.0,7.0,89,0.00,,---,0.00,VWS V14.01,2013-08-02 07:04:00,
2013-08-02 02:05:00,68.9,65.5,29.99,SW,219,5.0,7.0,89,0.00,,---,0.00,VWS V14.01,2013-08-02 07:05:00,
2013-08-02 02:09:00,69.0,65.6,29.99,West,261,2.0,11.0,89,0.00,,---,0.00,VWS V14.01,2013-08-02 07:09:00,
2013-08-02 02:10:00,69.0,65.3,29.98,SSW,213,13.0,13.0,88,0.00,,---,0.00,VWS V14.01,2013-08-02 07:10:00,
2013-08-02 02:14:00,69.2,65.5,29.99,SSW,201,8.0,13.0,88,0.00,,---,0.00,VWS V14.01,2013-08-02 07:14:00,
2013-08-02 02:15:00,69.2,65.2,29.99,SSW,213,7.0,13.0,87,0.00,,---,0.00,VWS V14.01,2013-08-02 07:15:00,
2013-08-02 02:19:00,69.4,65.4,29.99,South,180,8.0,13.0,87,0.00,,---,0.00,VWS V14.01,2013-08-02 07:19:00,
2013-08-02 02:20:00,69.4,65.4,29.98,WSW,238,4.0,13.0,87,0.00,,---,0.00,VWS V14.01,2013-08-02 07:20:00,
2013-08-02 02:24:00,69.4,65.4,29.99,SSW,207,4.0,10.0,87,0.00,,---,0.00,VWS V14.01,2013-08-02 07:24:00,
2013-08-02 02:25:00,69.5,65.5,29.99,SSW,211,2.0,10.0,87,0.00,,---,0.00,VWS V14.01,2013-08-02 07:25:00,
2013-08-02 02:29:00,69.4,65.4,29.99,SSW,211,0.0,9.0,87,0.00,,---,0.00,VWS V14.01,2013-08-02 07:29:00,
2013-08-02 02:30:00,69.4,65.4,29.99,SW,219,3.0,10.0,87,0.00,,---,0.00,VWS V14.01,2013-08-02 07:30:00,
2013-08-02 02:34:00,69.4,65.4,29.99,SSW,204,1.0,7.0,87,0.00,,---,0.00,VWS V14.01,2013-08-02 07:34:00,
2013-08-02 02:35:00,69.3,65.3,29.99,WSW,255,9.0,11.0,87,0.00,,---,0.00,VWS V14.01,2013-08-02 07:35:00,
2013-08-02 02:40:00,69.2,65.2,29.98,SW,219,7.0,9.0,87,0.00,,---,0.00,VWS V14.01,2013-08-02 07:40:00,
2013-08-02 02:45:00,69.2,65.5,29.98,SSW,198,0.0,12.0,88,0.00,,---,0.00,VWS V14.01,2013-08-02 07:45:00,
2013-08-02 02:50:00,69.1,65.4,29.98,SW,221,8.0,12.0,88,0.00,,---,0.00,VWS V14.01,2013-08-02 07:50:00,
2013-08-02 02:55:00,69.0,65.6,29.99,SW,228,0.0,8.0,89,0.00,,---,0.00,VWS V14.01,2013-08-02 07:55:00,
2013-08-02 03:00:00,68.9,65.5,29.99,SW,231,0.0,7.0,89,0.00,,---,0.00,VWS V14.01,2013-08-02 08:00:00,
2013-08-02 03:05:00,68.7,65.3,29.99,SSW,212,0.0,7.0,89,0.00,,---,0.00,VWS V14.01,2013-08-02 08:05:00,
2013-08-02 03:10:00,68.6,65.6,29.99,SSW,194,2.0,10.0,90,0.00,,---,0.00,VWS V14.01,2013-08-02 08:10:00,
2013-08-02 03:15:00,68.5,65.5,29.98,South,169,4.0,11.0,90,0.00,,---,0.00,VWS V14.01,2013-08-02 08:15:00,
2013-08-02 03:20:00,68.4,65.7,29.98,SSW,198,0.0,8.0,91,0.00,,---,0.00,VWS V14.01,2013-08-02 08:20:00,
2013-08-02 03:25:00,68.3,65.6,29.97,South,188,1.0,9.0,91,0.00,,---,0.00,VWS V14.01,2013-08-02 08:25:00,
2013-08-02 03:30:00,68.2,65.5,29.95,SSW,213,4.0,10.0,91,0.00,,---,0.00,VWS V14.01,2013-08-02 08:30:00,
2013-08-02 03:35:00,68.1,65.7,29.94,SW,229,4.0,9.0,92,0.00,,---,0.00,VWS V14.01,2013-08-02 08:35:00,
2013-08-02 03:40:00,68.1,65.7,29.93,South,190,0.0,11.0,92,0.00,,---,0.00,VWS V14.01,2013-08-02 08:40:00,
2013-08-02 03:45:00,68.1,65.7,29.94,SSW,205,0.0,6.0,92,0.00,,---,0.00,VWS V14.01,2013-08-02 08:45:00,
2013-08-02 03:50:00,68.1,65.7,29.95,SW,217,4.0,7.0,92,0.00,,---,0.00,VWS V14.01,2013-08-02 08:50:00,
2013-08-02 03:55:00,68.1,66.0,29.97,WSW,238,1.0,4.0,93,0.00,,---,0.00,VWS V14.01,2013-08-02 08:55:00,
2013-08-02 04:00:00,68.1,66.0,29.96,WSW,241,0.0,4.0,93,0.00,,---,0.00,VWS V14.01,2013-08-02 09:00:00,
2013-08-02 04:01:00,68.1,66.0,29.95,WSW,241,0.0,1.0,93,0.00,,---,0.00,VWS V14.01,2013-08-02 09:01:00,
2013-08-02 04:05:00,68.2,66.1,29.95,WSW,240,0.0,4.0,93,0.00,,---,0.00,VWS V14.01,2013-08-02 09:05:00,
2013-08-02 04:06:00,68.2,66.1,29.95,WSW,240,0.0,0.0,93,0.00,,---,0.00,VWS V14.01,2013-08-02 09:06:00,
2013-08-02 04:10:00,68.2,66.1,29.94,SW,225,0.0,4.0,93,0.00,,---,0.00,VWS V14.01,2013-08-02 09:10:00,
2013-08-02 04:11:00,68.3,66.2,29.94,SW,225,0.0,1.0,93,0.00,,---,0.00,VWS V14.01,2013-08-02 09:11:00,
2013-08-02 04:15:00,68.3,66.2,29.96,SW,225,0.0,3.0,93,0.00,,---,0.00,VWS V14.01,2013-08-02 09:15:00,
2013-08-02 04:16:00,68.3,66.2,29.96,SW,225,0.0,0.0,93,0.00,,---,0.00,VWS V14.01,2013-08-02 09:16:00,
2013-08-02 04:20:00,68.4,66.3,29.96,SW,225,0.0,3.0,93,0.00,,---,0.00,VWS V14.01,2013-08-02 09:20:00,
2013-08-02 04:21:00,68.4,66.3,29.96,SW,225,0.0,0.0,93,0.00,,---,0.00,VWS V14.01,2013-08-02 09:21:00,
2013-08-02 04:25:00,68.4,66.3,29.95,SW,225,0.0,1.0,93,0.00,,---,0.00,VWS V14.01,2013-08-02 09:25:00,
2013-08-02 04:26:00,68.4,66.3,29.95,SW,225,0.0,0.0,93,0.00,,---,0.00,VWS V14.01,2013-08-02 09:26:00,
2013-08-02 04:30:00,68.4,66.3,29.96,SW,225,1.0,4.0,93,0.00,,---,0.00,VWS V14.01,2013-08-02 09:30:00,
2013-08-02 04:31:00,68.4,66.3,29.96,SW,225,0.0,1.0,93,0.00,,---,0.00,VWS V14.01,2013-08-02 09:31:00,
2013-08-02 04:35:00,68.3,66.2,29.96,WSW,237,1.0,5.0,93,0.00,,---,0.00,VWS V14.01,2013-08-02 09:35:00,
2013-08-02 04:36:00,68.3,66.2,29.96,WSW,237,1.0,4.0,93,0.00,,---,0.00,VWS V14.01,2013-08-02 09:36:00,
2013-08-02 04:40:00,68.2,66.1,29.96,WSW,238,0.0,4.0,93,0.00,,---,0.00,VWS V14.01,2013-08-02 09:40:00,
2013-08-02 04:41:00,68.2,66.1,29.96,WSW,239,0.0,4.0,93,0.00,,---,0.00,VWS V14.01,2013-08-02 09:41:00,
2013-08-02 04:45:00,68.2,66.1,29.97,WSW,240,3.0,4.0,93,0.00,,---,0.00,VWS V14.01,2013-08-02 09:45:00,
2013-08-02 04:48:00,68.1,66.0,29.96,WSW,240,0.0,3.0,93,0.00,,---,0.00,VWS V14.01,2013-08-02 09:48:00,
2013-08-02 04:50:00,68.1,66.0,29.96,WSW,240,0.0,3.0,93,0.00,,---,0.00,VWS V14.01,2013-08-02 09:50:00,
2013-08-02 04:53:00,68.2,66.1,29.96,WSW,240,0.0,1.0,93,0.00,,---,0.00,VWS V14.01,2013-08-02 09:53:00,
2013-08-02 04:55:00,68.2,66.1,29.96,WSW,240,0.0,3.0,93,0.00,,---,0.00,VWS V14.01,2013-08-02 09:55:00,
2013-08-02 04:58:00,68.2,66.1,29.96,WSW,240,0.0,1.0,93,0.00,,---,0.00,VWS V14.01,2013-08-02 09:58:00,
2013-08-02 05:00:00,68.2,66.1,29.96,WSW,240,0.0,1.0,93,0.00,,---,0.00,VWS V14.01,2013-08-02 10:00:00,
2013-08-02 05:03:00,68.2,66.1,29.96,WSW,240,0.0,0.0,93,0.00,,---,0.00,VWS V14.01,2013-08-02 10:03:00,
2013-08-02 05:05:00,68.2,66.1,29.96,WSW,240,0.0,0.0,93,0.00,,---,0.00,VWS V14.01,2013-08-02 10:05:00,
2013-08-02 05:08:00,68.1,66.0,29.96,WSW,240,0.0,0.0,93,0.00,,---,0.00,VWS V14.01,2013-08-02 10:08:00,
2013-08-02 05:10:00,68.1,66.0,29.96,WSW,240,0.0,0.0,93,0.00,,---,0.00,VWS V14.01,2013-08-02 10:10:00,
2013-08-02 05:13:00,68.0,65.9,29.96,WSW,240,0.0,0.0,93,0.00,,---,0.00,VWS V14.01,2013-08-02 10:13:00,
2013-08-02 05:15:00,68.0,65.9,29.96,WSW,240,0.0,0.0,93,0.00,,---,0.00,VWS V14.01,2013-08-02 10:15:00,
2013-08-02 05:18:00,67.9,65.8,29.96,WSW,240,0.0,1.0,93,0.00,,---,0.00,VWS V14.01,2013-08-02 10:18:00,
2013-08-02 05:20:00,67.8,65.7,29.96,WSW,240,0.0,1.0,93,0.00,,---,0.00,VWS V14.01,2013-08-02 10:20:00,
2013-08-02 05:23:00,67.7,65.6,29.96,WSW,240,0.0,2.0,93,0.00,,---,0.00,VWS V14.01,2013-08-02 10:23:00,
2013-08-02 05:25:00,67.7,65.9,29.96,WSW,240,1.0,2.0,94,0.00,,---,0.00,VWS V14.01,2013-08-02 10:25:00,
2013-08-02 05:28:00,67.6,65.8,29.96,WSW,238,0.0,4.0,94,0.00,,---,0.00,VWS V14.01,2013-08-02 10:28:00,
2013-08-02 05:30:00,67.5,65.7,29.96,WSW,238,0.0,4.0,94,0.00,,---,0.00,VWS V14.01,2013-08-02 10:30:00,
2013-08-02 05:33:00,67.4,65.3,29.96,WSW,238,0.0,0.0,93,0.00,,---,0.00,VWS V14.01,2013-08-02 10:33:00,
2013-08-02 05:35:00,67.2,65.1,29.96,WSW,238,0.0,0.0,93,0.00,,---,0.00,VWS V14.01,2013-08-02 10:35:00,
2013-08-02 05:38:00,66.9,64.8,29.96,WSW,238,0.0,1.0,93,0.00,,---,0.00,VWS V14.01,2013-08-02 10:38:00,
2013-08-02 05:40:00,66.7,64.6,29.95,WSW,238,0.0,1.0,93,0.00,,---,0.00,VWS V14.01,2013-08-02 10:40:00,
2013-08-02 05:43:00,66.5,64.4,29.95,WSW,238,0.0,0.0,93,0.00,,---,0.00,VWS V14.01,2013-08-02 10:43:00,
2013-08-02 05:45:00,66.4,64.3,29.95,WSW,238,0.0,0.0,93,0.00,,---,0.00,VWS V14.01,2013-08-02 10:45:00,
2013-08-02 05:48:00,66.2,64.4,29.95,WSW,238,0.0,0.0,94,0.00,,---,0.00,VWS V14.01,2013-08-02 10:48:00,
2013-08-02 05:50:00,66.1,64.3,29.95,WSW,238,0.0,0.0,94,0.00,,---,0.00,VWS V14.01,2013-08-02 10:50:00,
2013-08-02 05:54:00,66.0,64.2,29.95,WSW,238,0.0,0.0,94,0.00,,---,0.00,VWS V14.01,2013-08-02 10:54:00,
2013-08-02 05:55:00,65.9,64.1,29.95,WSW,238,0.0,0.0,94,0.00,,---,0.00,VWS V14.01,2013-08-02 10:55:00,
2013-08-02 05:59:00,65.8,64.3,29.96,WSW,238,0.0,0.0,95,0.00,,---,0.00,VWS V14.01,2013-08-02 10:59:00,
2013-08-02 06:00:00,65.8,64.3,29.96,WSW,238,0.0,0.0,95,0.00,,---,0.00,VWS V14.01,2013-08-02 11:00:00,
2013-08-02 06:04:00,65.7,64.2,29.96,WSW,238,0.0,0.0,95,0.00,,---,0.00,VWS V14.01,2013-08-02 11:04:00,
2013-08-02 06:05:00,65.6,64.1,29.96,WSW,238,0.0,0.0,95,0.00,,---,0.00,VWS V14.01,2013-08-02 11:05:00,
2013-08-02 06:09:00,65.5,64.0,29.96,WSW,238,0.0,0.0,95,0.00,,---,0.00,VWS V14.01,2013-08-02 11:09:00,
2013-08-02 06:10:00,65.4,63.9,29.96,WSW,238,0.0,0.0,95,0.00,,---,0.00,VWS V14.01,2013-08-02 11:10:00,
2013-08-02 06:14:00,65.3,63.8,29.97,WSW,238,0.0,0.0,95,0.00,,---,0.00,VWS V14.01,2013-08-02 11:14:00,
2013-08-02 06:15:00,65.3,63.8,29.96,WSW,238,0.0,1.0,95,0.00,,---,0.00,VWS V14.01,2013-08-02 11:15:00,
2013-08-02 06:19:00,65.3,63.8,29.97,WSW,238,0.0,0.0,95,0.00,,---,0.00,VWS V14.01,2013-08-02 11:19:00,
2013-08-02 06:20:00,65.2,64.0,29.96,WSW,238,0.0,0.0,96,0.00,,---,0.00,VWS V14.01,2013-08-02 11:20:00,
2013-08-02 06:24:00,65.2,64.0,29.96,WSW,238,0.0,0.0,96,0.00,,---,0.00,VWS V14.01,2013-08-02 11:24:00,
2013-08-02 06:25:00,65.2,64.0,29.97,WSW,238,0.0,0.0,96,0.00,,---,0.00,VWS V14.01,2013-08-02 11:25:00,
2013-08-02 06:29:00,65.2,64.0,29.96,WSW,238,0.0,0.0,96,0.00,,---,0.00,VWS V14.01,2013-08-02 11:29:00,
2013-08-02 06:30:00,65.2,64.0,29.96,WSW,238,0.0,0.0,96,0.00,,---,0.00,VWS V14.01,2013-08-02 11:30:00,
2013-08-02 06:34:00,65.3,64.1,29.96,WSW,238,0.0,1.0,96,0.00,,---,0.00,VWS V14.01,2013-08-02 11:34:00,
2013-08-02 06:35:00,65.3,64.4,29.97,WSW,238,0.0,1.0,97,0.00,,---,0.00,VWS V14.01,2013-08-02 11:35:00,
2013-08-02 06:39:00,65.3,64.4,29.96,WSW,238,0.0,0.0,97,0.00,,---,0.00,VWS V14.01,2013-08-02 11:39:00,
2013-08-02 06:40:00,65.4,64.5,29.96,WSW,238,0.0,1.0,97,0.00,,---,0.00,VWS V14.01,2013-08-02 11:40:00,
2013-08-02 06:44:00,65.4,64.5,29.96,WSW,238,0.0,0.0,97,0.00,,---,0.00,VWS V14.01,2013-08-02 11:44:00,
2013-08-02 06:45:00,65.4,64.5,29.96,WSW,238,0.0,2.0,97,0.00,,---,0.00,VWS V14.01,2013-08-02 11:45:00,
2013-08-02 06:49:00,65.5,64.6,29.96,SW,235,0.0,4.0,97,0.00,,---,0.00,VWS V14.01,2013-08-02 11:49:00,
2013-08-02 06:50:00,65.5,64.6,29.96,SW,235,0.0,4.0,97,0.00,,---,0.00,VWS V14.01,2013-08-02 11:50:00,
2013-08-02 06:55:00,65.5,64.6,29.96,SW,235,0.0,0.0,97,0.00,,---,0.00,VWS V14.01,2013-08-02 11:55:00,
2013-08-02 07:00:00,65.6,64.7,29.96,SW,235,0.0,0.0,97,0.00,,---,0.00,VWS V14.01,2013-08-02 12:00:00,
2013-08-02 07:05:00,65.6,64.7,29.96,SW,235,0.0,0.0,97,0.00,,---,0.00,VWS V14.01,2013-08-02 12:05:00,
2013-08-02 07:10:00,65.6,64.7,29.97,SW,235,0.0,2.0,97,0.00,,---,0.00,VWS V14.01,2013-08-02 12:10:00,
2013-08-02 07:15:00,65.6,64.7,29.96,SW,235,0.0,0.0,97,0.00,,---,0.00,VWS V14.01,2013-08-02 12:15:00,
2013-08-02 07:20:00,65.6,64.7,29.96,SW,235,0.0,0.0,97,0.00,,---,0.00,VWS V14.01,2013-08-02 12:20:00,
2013-08-02 07:25:00,65.7,64.8,29.97,SW,235,0.0,1.0,97,0.00,,---,0.00,VWS V14.01,2013-08-02 12:25:00,
2013-08-02 07:30:00,65.9,65.3,29.97,SW,234,0.0,0.0,98,0.00,,---,0.00,VWS V14.01,2013-08-02 12:30:00,
2013-08-02 07:35:00,66.1,65.5,29.96,SW,234,0.0,1.0,98,0.00,,---,0.00,VWS V14.01,2013-08-02 12:35:00,
2013-08-02 07:40:00,66.2,65.6,29.96,SW,234,0.0,0.0,98,0.00,,---,0.00,VWS V14.01,2013-08-02 12:40:00,
2013-08-02 07:45:00,66.3,65.7,29.96,SW,234,0.0,0.0,98,0.00,,---,0.00,VWS V14.01,2013-08-02 12:45:00,
2013-08-02 07:50:00,66.6,66.0,29.96,SW,234,0.0,0.0,98,0.00,,---,0.00,VWS V14.01,2013-08-02 12:50:00,
2013-08-02 07:55:00,67.0,66.4,29.95,SW,234,0.0,2.0,98,0.00,,---,0.00,VWS V14.01,2013-08-02 12:55:00,
2013-08-02 08:00:00,67.3,66.7,29.96,SW,234,0.0,1.0,98,0.00,,---,0.00,VWS V14.01,2013-08-02 13:00:00,
2013-08-02 08:05:00,67.4,66.8,29.96,SW,234,0.0,0.0,98,0.00,,---,0.00,VWS V14.01,2013-08-02 13:05:00,
2013-08-02 08:10:00,67.6,67.0,29.96,SW,234,0.0,0.0,98,0.00,,---,0.00,VWS V14.01,2013-08-02 13:10:00,
2013-08-02 08:15:00,67.7,67.1,29.96,SW,234,0.0,0.0,98,0.00,,---,0.00,VWS V14.01,2013-08-02 13:15:00,
2013-08-02 08:16:00,67.7,67.1,29.96,SW,234,0.0,0.0,98,0.00,,---,0.00,VWS V14.01,2013-08-02 13:16:00,
2013-08-02 08:20:00,67.8,67.2,29.97,SW,234,0.0,0.0,98,0.00,,---,0.00,VWS V14.01,2013-08-02 13:20:00,
2013-08-02 08:25:00,68.0,67.4,29.97,SW,234,0.0,0.0,98,0.00,,---,0.00,VWS V14.01,2013-08-02 13:25:00,
2013-08-02 08:26:00,68.0,67.4,29.97,SW,234,0.0,0.0,98,0.00,,---,0.00,VWS V14.01,2013-08-02 13:26:00,
2013-08-02 08:30:00,68.3,67.7,29.97,SW,234,0.0,0.0,98,0.00,,---,0.00,VWS V14.01,2013-08-02 13:30:00,
2013-08-02 08:35:00,68.4,67.8,29.97,SW,234,0.0,1.0,98,0.00,,---,0.00,VWS V14.01,2013-08-02 13:35:00,
2013-08-02 08:36:00,68.4,67.8,29.97,SW,234,0.0,1.0,98,0.00,,---,0.00,VWS V14.01,2013-08-02 13:36:00,
2013-08-02 08:40:00,68.6,68.0,29.97,SW,234,0.0,0.0,98,0.00,,---,0.00,VWS V14.01,2013-08-02 13:40:00,
2013-08-02 08:41:00,68.6,68.0,29.97,SW,234,0.0,0.0,98,0.00,,---,0.00,VWS V14.01,2013-08-02 13:41:00,
2013-08-02 08:45:00,69.0,68.4,29.97,SW,234,0.0,0.0,98,0.00,,---,0.00,VWS V14.01,2013-08-02 13:45:00,
2013-08-02 08:46:00,69.0,68.4,29.97,SW,234,0.0,0.0,98,0.00,,---,0.00,VWS V14.01,2013-08-02 13:46:00,
2013-08-02 08:50:00,69.5,68.9,29.97,SW,234,0.0,0.0,98,0.00,,---,0.00,VWS V14.01,2013-08-02 13:50:00,
2013-08-02 08:55:00,70.2,69.6,29.97,SW,234,0.0,2.0,98,0.00,,---,0.00,VWS V14.01,2013-08-02 13:55:00,
2013-08-02 09:00:00,70.8,69.6,29.97,SW,234,0.0,0.0,96,0.00,,---,0.00,VWS V14.01,2013-08-02 14:00:00,
2013-08-02 09:05:00,71.3,69.8,29.97,SW,234,0.0,1.0,95,0.00,,---,0.00,VWS V14.01,2013-08-02 14:05:00,
2013-08-02 09:06:00,71.3,69.8,29.97,SW,234,0.0,1.0,95,0.00,,---,0.00,VWS V14.01,2013-08-02 14:06:00,
2013-08-02 09:10:00,71.8,69.7,29.97,SW,234,0.0,1.0,93,0.00,,---,0.00,VWS V14.01,2013-08-02 14:10:00,
2013-08-02 09:11:00,71.8,69.7,29.97,SW,234,0.0,1.0,93,0.00,,---,0.00,VWS V14.01,2013-08-02 14:11:00,
2013-08-02 09:15:00,72.1,70.0,29.97,SW,234,0.0,1.0,93,0.00,,---,0.00,VWS V14.01,2013-08-02 14:15:00,
2013-08-02 09:16:00,72.1,70.0,29.97,SW,234,0.0,1.0,93,0.00,,---,0.00,VWS V14.01,2013-08-02 14:16:00,
2013-08-02 09:20:00,72.6,69.8,29.97,SW,234,0.0,1.0,91,0.00,,---,0.00,VWS V14.01,2013-08-02 14:20:00,
2013-08-02 09:21:00,72.6,69.8,29.97,SW,234,0.0,1.0,91,0.00,,---,0.00,VWS V14.01,2013-08-02 14:21:00,
2013-08-02 09:25:00,72.8,69.7,29.97,SW,234,0.0,1.0,90,0.00,,---,0.00,VWS V14.01,2013-08-02 14:25:00,
2013-08-02 09:26:00,72.8,69.7,29.97,SW,234,0.0,1.0,90,0.00,,---,0.00,VWS V14.01,2013-08-02 14:26:00,
2013-08-02 09:30:00,73.0,70.2,29.97,SW,234,0.0,1.0,91,0.00,,---,0.00,VWS V14.01,2013-08-02 14:30:00,
2013-08-02 09:31:00,73.0,70.2,29.97,SW,234,0.0,0.0,91,0.00,,---,0.00,VWS V14.01,2013-08-02 14:31:00,
2013-08-02 09:35:00,73.3,70.2,29.97,SW,234,0.0,1.0,90,0.00,,---,0.00,VWS V14.01,2013-08-02 14:35:00,
2013-08-02 09:36:00,73.3,70.2,29.97,SW,234,0.0,0.0,90,0.00,,---,0.00,VWS V14.01,2013-08-02 14:36:00,
2013-08-02 09:40:00,73.9,70.5,29.97,SW,234,0.0,2.0,89,0.00,,---,0.00,VWS V14.01,2013-08-02 14:40:00,
2013-08-02 09:41:00,73.9,70.5,29.97,SW,234,0.0,0.0,89,0.00,,---,0.00,VWS V14.01,2013-08-02 14:41:00,
2013-08-02 09:45:00,74.5,70.7,29.97,SW,234,0.0,3.0,88,0.00,,---,0.00,VWS V14.01,2013-08-02 14:45:00,
2013-08-02 09:46:00,74.6,70.8,29.97,SW,234,0.0,0.0,88,0.00,,---,0.00,VWS V14.01,2013-08-02 14:46:00,
2013-08-02 09:50:00,75.1,70.6,29.97,WNW,294,0.0,4.0,86,0.00,,---,0.00,VWS V14.01,2013-08-02 14:50:00,
2013-08-02 09:51:00,75.2,70.7,29.97,WNW,294,1.0,2.0,86,0.00,,---,0.00,VWS V14.01,2013-08-02 14:51:00,
2013-08-02 09:55:00,75.5,71.0,29.97,NE,36,0.0,4.0,86,0.00,,---,0.00,VWS V14.01,2013-08-02 14:55:00,
2013-08-02 09:57:00,75.6,71.1,29.97,NE,36,0.0,0.0,86,0.00,,---,0.00,VWS V14.01,2013-08-02 14:57:00,
2013-08-02 10:00:00,76.0,70.8,29.97,NE,36,0.0,0.0,84,0.00,,---,0.00,VWS V14.01,2013-08-02 15:00:00,
2013-08-02 10:02:00,76.2,70.7,29.97,NE,36,2.0,2.0,83,0.00,,---,0.00,VWS V14.01,2013-08-02 15:02:00,
2013-08-02 10:05:00,76.5,70.6,29.98,NE,43,0.0,2.0,82,0.00,,---,0.00,VWS V14.01,2013-08-02 15:05:00,
2013-08-02 10:07:00,76.6,71.1,29.98,NE,43,0.0,0.0,83,0.00,,---,0.00,VWS V14.01,2013-08-02 15:07:00,
2013-08-02 10:10:00,76.8,70.9,29.98,NE,41,0.0,5.0,82,0.00,,---,0.00,VWS V14.01,2013-08-02 15:10:00,
2013-08-02 10:12:00,76.9,71.0,29.98,NE,41,0.0,2.0,82,0.00,,---,0.00,VWS V14.01,2013-08-02 15:12:00,
2013-08-02 10:15:00,76.9,70.6,29.98,NE,41,0.0,2.0,81,0.00,,---,0.00,VWS V14.01,2013-08-02 15:15:00,
2013-08-02 10:17:00,77.1,70.8,29.98,NE,41,0.0,1.0,81,0.00,,---,0.00,VWS V14.01,2013-08-02 15:17:00,
2013-08-02 10:20:00,77.3,71.0,29.98,NE,40,0.0,2.0,81,0.00,,---,0.00,VWS V14.01,2013-08-02 15:20:00,
2013-08-02 10:22:00,77.4,70.8,29.99,NE,40,1.0,2.0,80,0.00,,---,0.00,VWS V14.01,2013-08-02 15:22:00,
2013-08-02 10:25:00,77.5,70.8,29.99,NNE,33,1.0,6.0,80,0.00,,---,0.00,VWS V14.01,2013-08-02 15:25:00,
2013-08-02 10:27:00,77.5,70.5,29.99,NNE,32,0.0,1.0,79,0.00,,---,0.00,VWS V14.01,2013-08-02 15:27:00,
2013-08-02 10:30:00,77.5,70.5,29.99,NNE,32,0.0,1.0,79,0.00,,---,0.00,VWS V14.01,2013-08-02 15:30:00,
2013-08-02 10:32:00,77.5,70.5,29.99,NNE,33,0.0,2.0,79,0.00,,---,0.00,VWS V14.01,2013-08-02 15:32:00,
2013-08-02 10:35:00,77.7,71.0,29.99,NNE,33,0.0,4.0,80,0.00,,---,0.00,VWS V14.01,2013-08-02 15:35:00,
2013-08-02 10:37:00,77.9,70.9,29.99,NNE,32,0.0,2.0,79,0.00,,---,0.00,VWS V14.01,2013-08-02 15:37:00,
2013-08-02 10:40:00,78.2,70.8,29.99,NNE,33,0.0,4.0,78,0.00,,---,0.00,VWS V14.01,2013-08-02 15:40:00,
2013-08-02 10:43:00,78.3,70.5,30.00,North,5,0.0,5.0,77,0.00,,---,0.00,VWS V14.01,2013-08-02 15:43:00,
2013-08-02 10:45:00,78.5,71.4,30.00,NNE,29,1.0,6.0,79,0.00,,---,0.00,VWS V14.01,2013-08-02 15:45:00,
2013-08-02 10:48:00,78.6,71.2,30.00,NE,34,4.0,4.0,78,0.00,,---,0.00,VWS V14.01,2013-08-02 15:48:00,
2013-08-02 10:50:00,78.7,70.5,29.99,NE,38,2.0,8.0,76,0.00,,---,0.00,VWS V14.01,2013-08-02 15:50:00,
2013-08-02 10:53:00,78.7,70.1,29.99,NNE,32,0.0,3.0,75,0.00,,---,0.00,VWS V14.01,2013-08-02 15:53:00,
2013-08-02 10:55:00,78.9,70.7,29.99,NNE,32,0.0,3.0,76,0.00,,---,0.00,VWS V14.01,2013-08-02 15:55:00,
2013-08-02 10:58:00,78.9,70.7,30.00,NNE,29,0.0,4.0,76,0.00,,---,0.00,VWS V14.01,2013-08-02 15:58:00,
2013-08-02 11:00:00,79.0,71.2,30.00,NNE,29,0.0,4.0,77,0.00,,---,0.00,VWS V14.01,2013-08-02 16:00:00,
2013-08-02 11:03:00,79.0,71.2,30.00,NE,48,1.0,6.0,77,0.00,,---,0.00,VWS V14.01,2013-08-02 16:03:00,
2013-08-02 11:05:00,78.6,70.4,30.00,ENE,57,5.0,6.0,76,0.00,,---,0.00,VWS V14.01,2013-08-02 16:05:00,
2013-08-02 11:08:00,78.3,70.5,30.00,ENE,65,0.0,6.0,77,0.00,,---,0.00,VWS V14.01,2013-08-02 16:08:00,
2013-08-02 11:10:00,78.1,70.3,30.00,ENE,65,0.0,6.0,77,0.00,,---,0.00,VWS V14.01,2013-08-02 16:10:00,
2013-08-02 11:13:00,77.9,70.5,30.00,ENE,65,0.0,4.0,78,0.00,,---,0.00,VWS V14.01,2013-08-02 16:13:00,
2013-08-02 11:15:00,77.5,69.7,30.00,ENE,65,0.0,4.0,77,0.00,,---,0.00,VWS V14.01,2013-08-02 16:15:00,
2013-08-02 11:18:00,77.2,69.8,30.00,NE,42,0.0,12.0,78,0.00,,---,0.00,VWS V14.01,2013-08-02 16:18:00,
2013-08-02 11:20:00,76.9,69.5,30.00,NE,42,0.0,12.0,78,0.00,,---,0.00,VWS V14.01,2013-08-02 16:20:00,
2013-08-02 11:23:00,76.8,69.8,30.00,NE,50,0.0,6.0,79,0.00,,---,0.00,VWS V14.01,2013-08-02 16:23:00,
2013-08-02 11:25:00,76.8,70.5,30.00,NE,50,0.0,6.0,81,0.00,,---,0.00,VWS V14.01,2013-08-02 16:25:00,
2013-08-02 11:28:00,76.7,70.1,30.00,NE,49,0.0,2.0,80,0.00,,---,0.00,VWS V14.01,2013-08-02 16:28:00,
2013-08-02 11:30:00,76.8,70.2,30.00,NE,49,0.0,2.0,80,0.00,,---,0.00,VWS V14.01,2013-08-02 16:30:00,
2013-08-02 11:33:00,76.9,70.6,30.00,NE,50,0.0,1.0,81,0.00,,---,0.00,VWS V14.01,2013-08-02 16:33:00,
2013-08-02 11:35:00,77.0,70.7,30.00,NE,49,0.0,1.0,81,0.00,,---,0.00,VWS V14.01,2013-08-02 16:35:00,
2013-08-02 11:38:00,77.1,70.8,30.00,NE,49,0.0,0.0,81,0.00,,---,0.00,VWS V14.01,2013-08-02 16:38:00,
2013-08-02 11:40:00,77.3,70.3,30.00,NE,49,0.0,4.0,79,0.00,,---,0.00,VWS V14.01,2013-08-02 16:40:00,
2013-08-02 11:44:00,77.5,70.5,30.00,NE,49,0.0,4.0,79,0.00,,---,0.00,VWS V14.01,2013-08-02 16:44:00,
2013-08-02 11:45:00,77.6,70.6,30.00,NE,49,0.0,4.0,79,0.00,,---,0.00,VWS V14.01,2013-08-02 16:45:00,
2013-08-02 11:49:00,77.8,70.4,30.00,NE,49,2.0,2.0,78,0.00,,---,0.00,VWS V14.01,2013-08-02 16:49:00,
2013-08-02 11:50:00,77.9,71.2,30.00,NE,49,0.0,4.0,80,0.00,,---,0.00,VWS V14.01,2013-08-02 16:50:00,
2013-08-02 11:54:00,78.3,71.6,30.00,NE,49,0.0,2.0,80,0.00,,---,0.00,VWS V14.01,2013-08-02 16:54:00,
2013-08-02 11:55:00,78.7,71.3,30.00,NE,49,0.0,2.0,78,0.00,,---,0.00,VWS V14.01,2013-08-02 16:55:00,
2013-08-02 11:59:00,79.5,71.3,30.00,NE,49,0.0,3.0,76,0.00,,---,0.00,VWS V14.01,2013-08-02 16:59:00,
2013-08-02 12:00:00,79.8,70.8,30.00,NE,50,0.0,4.0,74,0.00,,---,0.00,VWS V14.01,2013-08-02 17:00:00,
2013-08-02 12:04:00,79.9,70.9,30.00,NE,50,0.0,1.0,74,0.00,,---,0.00,VWS V14.01,2013-08-02 17:04:00,
2013-08-02 12:05:00,79.9,70.1,30.00,NE,54,3.0,3.0,72,0.00,,---,0.00,VWS V14.01,2013-08-02 17:05:00,
2013-08-02 12:09:00,79.9,70.5,30.00,NE,55,0.0,3.0,73,0.00,,---,0.00,VWS V14.01,2013-08-02 17:09:00,
2013-08-02 12:10:00,79.9,71.3,30.00,NE,55,0.0,3.0,75,0.00,,---,0.00,VWS V14.01,2013-08-02 17:10:00,
2013-08-02 12:14:00,79.9,71.3,30.00,NE,55,0.0,2.0,75,0.00,,---,0.00,VWS V14.01,2013-08-02 17:14:00,
2013-08-02 12:15:00,79.8,70.8,30.00,NE,55,0.0,2.0,74,0.00,,---,0.00,VWS V14.01,2013-08-02 17:15:00,
2013-08-02 12:19:00,79.6,71.0,30.00,NE,55,0.0,0.0,75,0.00,,---,0.00,VWS V14.01,2013-08-02 17:19:00,
2013-08-02 12:20:00,79.5,70.9,30.00,NE,55,0.0,0.0,75,0.00,,---,0.00,VWS V14.01,2013-08-02 17:20:00,
2013-08-02 12:24:00,79.3,70.7,30.00,NE,55,0.0,0.0,75,0.00,,---,0.00,VWS V14.01,2013-08-02 17:24:00,
2013-08-02 12:25:00,79.3,70.7,30.00,NE,55,0.0,0.0,75,0.00,,---,0.00,VWS V14.01,2013-08-02 17:25:00,
2013-08-02 12:29:00,79.2,70.2,30.00,NE,55,0.0,1.0,74,0.00,,---,0.00,VWS V14.01,2013-08-02 17:29:00,
2013-08-02 12:30:00,79.1,70.1,30.00,NE,55,0.0,1.0,74,0.00,,---,0.00,VWS V14.01,2013-08-02 17:30:00,
2013-08-02 12:34:00,79.0,70.0,30.00,NE,55,0.0,0.0,74,0.00,,---,0.00,VWS V14.01,2013-08-02 17:34:00,
2013-08-02 12:35:00,78.9,69.9,30.00,NE,55,0.0,0.0,74,0.00,,---,0.00,VWS V14.01,2013-08-02 17:35:00,
2013-08-02 12:39:00,78.7,69.7,30.00,NE,55,0.0,0.0,74,0.00,,---,0.00,VWS V14.01,2013-08-02 17:39:00,
2013-08-02 12:40:00,78.6,70.0,30.00,NE,55,0.0,0.0,75,0.00,,---,0.00,VWS V14.01,2013-08-02 17:40:00,
2013-08-02 12:44:00,78.5,70.3,30.01,NE,55,0.0,0.0,76,0.00,,---,0.00,VWS V14.01,2013-08-02 17:44:00,
2013-08-02 12:45:00,78.4,70.2,30.01,NE,55,0.0,0.0,76,0.00,,---,0.00,VWS V14.01,2013-08-02 17:45:00,
2013-08-02 12:49:00,78.3,70.1,30.00,NE,55,0.0,0.0,76,0.00,,---,0.00,VWS V14.01,2013-08-02 17:49:00,
2013-08-02 12:50:00,78.3,70.1,30.01,NE,55,0.0,0.0,76,0.00,,---,0.00,VWS V14.01,2013-08-02 17:50:00,
2013-08-02 12:54:00,78.2,70.0,30.01,NE,55,0.0,0.0,76,0.00,,---,0.00,VWS V14.01,2013-08-02 17:54:00,
2013-08-02 12:55:00,78.2,70.0,30.01,NE,55,0.0,0.0,76,0.00,,---,0.00,VWS V14.01,2013-08-02 17:55:00,
2013-08-02 12:59:00,78.1,69.9,30.01,NE,55,0.0,0.0,76,0.00,,---,0.00,VWS V14.01,2013-08-02 17:59:00,
2013-08-02 13:00:00,78.1,69.9,30.01,NE,55,0.0,0.0,76,0.00,,---,0.00,VWS V14.01,2013-08-02 18:00:00,
2013-08-02 13:04:00,78.0,70.2,30.01,NE,55,0.0,3.0,77,0.00,,---,0.00,VWS V14.01,2013-08-02 18:04:00,
2013-08-02 13:05:00,77.9,69.7,30.01,NE,55,0.0,3.0,76,0.00,,---,0.00,VWS V14.01,2013-08-02 18:05:00,
2013-08-02 13:10:00,77.7,69.5,30.01,NE,55,2.0,2.0,76,0.00,,---,0.00,VWS V14.01,2013-08-02 18:10:00,
2013-08-02 13:15:00,77.5,69.7,30.01,NE,53,0.0,2.0,77,0.00,,---,0.00,VWS V14.01,2013-08-02 18:15:00,
2013-08-02 13:20:00,77.3,69.5,30.01,NE,51,0.0,2.0,77,0.00,,---,0.00,VWS V14.01,2013-08-02 18:20:00,
2013-08-02 13:25:00,77.1,69.3,30.01,NE,51,0.0,1.0,77,0.00,,---,0.00,VWS V14.01,2013-08-02 18:25:00,
2013-08-02 13:30:00,76.9,69.5,30.01,NE,51,0.0,7.0,78,0.00,,---,0.00,VWS V14.01,2013-08-02 18:30:00,
2013-08-02 13:35:00,76.9,69.5,30.00,NE,51,0.0,1.0,78,0.00,,---,0.00,VWS V14.01,2013-08-02 18:35:00,
2013-08-02 13:40:00,77.0,69.6,30.00,NE,51,0.0,2.0,78,0.00,,---,0.00,VWS V14.01,2013-08-02 18:40:00,
2013-08-02 13:45:00,77.3,69.9,30.00,NE,51,0.0,5.0,78,0.00,,---,0.00,VWS V14.01,2013-08-02 18:45:00,
2013-08-02 13:50:00,77.5,69.3,30.00,NE,51,0.0,5.0,76,0.00,,---,0.00,VWS V14.01,2013-08-02 18:50:00,
2013-08-02 13:55:00,78.0,69.8,30.00,NE,51,0.0,4.0,76,0.00,,---,0.00,VWS V14.01,2013-08-02 18:55:00,
2013-08-02 14:00:00,78.8,70.6,30.00,NE,51,0.0,4.0,76,0.00,,---,0.00,VWS V14.01,2013-08-02 19:00:00,
2013-08-02 14:05:00,79.7,70.7,30.00,NE,51,0.0,8.0,74,0.00,,---,0.00,VWS V14.01,2013-08-02 19:05:00,
2013-08-02 14:10:00,80.2,70.4,29.99,NE,49,0.0,6.0,72,0.00,,---,0.00,VWS V14.01,2013-08-02 19:10:00,
2013-08-02 14:15:00,80.6,70.8,29.99,NE,56,0.0,5.0,72,0.00,,---,0.00,VWS V14.01,2013-08-02 19:15:00,
2013-08-02 14:20:00,81.2,70.9,29.99,NE,49,0.0,7.0,71,0.00,,---,0.00,VWS V14.01,2013-08-02 19:20:00,
2013-08-02 14:25:00,81.7,70.6,29.99,NE,46,0.0,4.0,69,0.00,,---,0.00,VWS V14.01,2013-08-02 19:25:00,
2013-08-02 14:30:00,82.1,70.9,29.99,NE,46,0.0,4.0,69,0.00,,---,0.00,VWS V14.01,2013-08-02 19:30:00,
2013-08-02 14:35:00,82.6,70.1,29.99,NE,46,0.0,5.0,66,0.00,,---,0.00,VWS V14.01,2013-08-02 19:35:00,
2013-08-02 14:36:00,82.6,70.1,29.99,NE,46,0.0,5.0,66,0.00,,---,0.00,VWS V14.01,2013-08-02 19:36:00,
2013-08-02 14:40:00,82.8,70.7,29.99,NE,46,0.0,5.0,67,0.00,,---,0.00,VWS V14.01,2013-08-02 19:40:00,
2013-08-02 14:41:00,82.8,70.7,29.99,NE,46,0.0,5.0,67,0.00,,---,0.00,VWS V14.01,2013-08-02 19:41:00,
2013-08-02 14:45:00,83.8,72.1,29.98,NE,46,0.0,1.0,68,0.00,,---,0.00,VWS V14.01,2013-08-02 19:45:00,
2013-08-02 14:46:00,83.8,72.1,29.98,NE,46,0.0,1.0,68,0.00,,---,0.00,VWS V14.01,2013-08-02 19:46:00,
2013-08-02 14:50:00,84.9,71.8,29.98,North,5,1.0,5.0,65,0.00,,---,0.00,VWS V14.01,2013-08-02 19:50:00,
2013-08-02 14:51:00,84.9,71.8,29.98,North,5,1.0,5.0,65,0.00,,---,0.00,VWS V14.01,2013-08-02 19:51:00,
2013-08-02 14:55:00,85.4,72.3,29.98,South,180,0.0,3.0,65,0.00,,---,0.00,VWS V14.01,2013-08-02 19:55:00,
2013-08-02 15:00:00,85.6,71.1,29.98,SSE,153,0.0,3.0,62,0.00,,---,0.00,VWS V14.01,2013-08-02 20:00:00,
2013-08-02 15:01:00,85.6,71.1,29.98,SSE,153,0.0,3.0,62,0.00,,---,0.00,VWS V14.01,2013-08-02 20:01:00,
2013-08-02 15:05:00,85.4,70.4,29.97,ESE,120,0.0,3.0,61,0.00,,---,0.00,VWS V14.01,2013-08-02 20:05:00,
2013-08-02 15:10:00,85.1,72.0,29.97,ESE,120,0.0,1.0,65,0.00,,---,0.00,VWS V14.01,2013-08-02 20:10:00,
2013-08-02 15:11:00,85.1,72.0,29.97,ESE,120,0.0,1.0,65,0.00,,---,0.00,VWS V14.01,2013-08-02 20:11:00,
2013-08-02 15:15:00,84.8,72.6,29.98,ESE,120,0.0,1.0,67,0.00,,---,0.00,VWS V14.01,2013-08-02 20:15:00,
2013-08-02 15:16:00,84.8,72.6,29.98,ESE,120,0.0,1.0,67,0.00,,---,0.00,VWS V14.01,2013-08-02 20:16:00,
2013-08-02 15:20:00,84.3,73.0,29.98,ESE,120,0.0,1.0,69,0.00,,---,0.00,VWS V14.01,2013-08-02 20:20:00,
2013-08-02 15:21:00,84.3,73.0,29.98,ESE,120,0.0,1.0,69,0.00,,---,0.00,VWS V14.01,2013-08-02 20:21:00,
2013-08-02 15:25:00,83.9,70.4,29.98,ESE,118,0.0,2.0,64,0.00,,---,0.00,VWS V14.01,2013-08-02 20:25:00,
2013-08-02 15:26:00,83.9,70.4,29.98,ESE,118,0.0,2.0,64,0.00,,---,0.00,VWS V14.01,2013-08-02 20:26:00,
2013-08-02 15:30:00,83.9,70.9,29.98,ESE,116,0.0,1.0,65,0.00,,---,0.00,VWS V14.01,2013-08-02 20:30:00,
2013-08-02 15:31:00,83.9,70.9,29.98,ESE,116,0.0,1.0,65,0.00,,---,0.00,VWS V14.01,2013-08-02 20:31:00,
2013-08-02 15:35:00,84.6,71.1,29.98,ESE,116,0.0,1.0,64,0.00,,---,0.00,VWS V14.01,2013-08-02 20:35:00,
2013-08-02 15:36:00,84.6,71.1,29.98,ESE,116,0.0,1.0,64,0.00,,---,0.00,VWS V14.01,2013-08-02 20:36:00,
2013-08-02 15:40:00,85.4,71.8,29.98,ESE,119,0.0,2.0,64,0.00,,---,0.00,VWS V14.01,2013-08-02 20:40:00,
2013-08-02 15:45:00,85.7,71.7,29.98,SE,125,1.0,2.0,63,0.00,,---,0.00,VWS V14.01,2013-08-02 20:45:00,
2013-08-02 15:46:00,85.7,71.7,29.98,SE,125,1.0,2.0,63,0.00,,---,0.00,VWS V14.01,2013-08-02 20:46:00,
2013-08-02 15:50:00,85.1,71.6,29.98,ESE,119,0.0,5.0,64,0.00,,---,0.00,VWS V14.01,2013-08-02 20:50:00,
2013-08-02 15:51:00,85.1,71.6,29.98,ESE,119,0.0,5.0,64,0.00,,---,0.00,VWS V14.01,2013-08-02 20:51:00,
2013-08-02 15:55:00,84.3,72.6,29.98,ESE,119,0.0,1.0,68,0.00,,---,0.00,VWS V14.01,2013-08-02 20:55:00,
2013-08-02 15:56:00,84.3,72.6,29.98,ESE,119,0.0,1.0,68,0.00,,---,0.00,VWS V14.01,2013-08-02 20:56:00,
2013-08-02 16:00:00,83.7,72.9,29.98,ESE,119,0.0,1.0,70,0.00,,---,0.00,VWS V14.01,2013-08-02 21:00:00,
2013-08-02 16:01:00,83.7,72.9,29.98,ESE,119,0.0,1.0,70,0.00,,---,0.00,VWS V14.01,2013-08-02 21:01:00,
2013-08-02 16:05:00,83.2,72.4,29.98,ESE,119,0.0,0.0,70,0.00,,---,0.00,VWS V14.01,2013-08-02 21:05:00,
2013-08-02 16:10:00,83.2,72.0,29.98,ESE,119,0.0,1.0,69,0.00,,---,0.00,VWS V14.01,2013-08-02 21:10:00,
2013-08-02 16:11:00,83.2,72.0,29.98,ESE,119,0.0,1.0,69,0.00,,---,0.00,VWS V14.01,2013-08-02 21:11:00,
2013-08-02 16:15:00,83.3,70.8,29.98,ESE,120,0.0,2.0,66,0.00,,---,0.00,VWS V14.01,2013-08-02 21:15:00,
2013-08-02 16:20:00,83.8,71.7,29.98,ENE,67,0.0,5.0,67,0.00,,---,0.00,VWS V14.01,2013-08-02 21:20:00,
2013-08-02 16:25:00,83.7,70.7,29.98,ENE,62,0.0,4.0,65,0.00,,---,0.00,VWS V14.01,2013-08-02 21:25:00,
2013-08-02 16:26:00,83.7,70.7,29.98,ENE,62,0.0,4.0,65,0.00,,---,0.00,VWS V14.01,2013-08-02 21:26:00,
2013-08-02 16:30:00,83.5,70.5,29.99,NE,46,0.0,4.0,65,0.01,,---,0.01,VWS V14.01,2013-08-02 21:30:00,
2013-08-02 16:35:00,82.4,70.8,29.99,North,355,2.0,11.0,68,0.01,,---,0.01,VWS V14.01,2013-08-02 21:35:00,
2013-08-02 16:40:00,80.6,70.8,29.99,NE,38,0.0,7.0,72,0.01,,---,0.01,VWS V14.01,2013-08-02 21:40:00,
2013-08-02 16:41:00,80.6,70.8,29.99,NE,38,0.0,7.0,72,0.01,,---,0.01,VWS V14.01,2013-08-02 21:41:00,
2013-08-02 16:45:00,79.3,70.7,30.00,NNE,24,4.0,9.0,75,0.01,,---,0.01,VWS V14.01,2013-08-02 21:45:00,
2013-08-02 16:50:00,78.4,70.6,30.00,NE,55,3.0,10.0,77,0.01,,---,0.01,VWS V14.01,2013-08-02 21:50:00,
2013-08-02 16:51:00,78.4,70.6,30.00,NE,55,3.0,10.0,77,0.01,,---,0.01,VWS V14.01,2013-08-02 21:51:00,
2013-08-02 16:55:00,78.0,70.6,30.00,NE,44,0.0,6.0,78,0.01,,---,0.01,VWS V14.01,2013-08-02 21:55:00,
2013-08-02 16:56:00,78.0,70.6,30.00,NE,44,0.0,6.0,78,0.01,,---,0.01,VWS V14.01,2013-08-02 21:56:00,
2013-08-02 17:00:00,77.9,70.9,30.00,ENE,74,1.0,7.0,79,0.01,,---,0.01,VWS V14.01,2013-08-02 22:00:00,
2013-08-02 17:01:00,77.9,70.9,30.00,ENE,74,1.0,7.0,79,0.01,,---,0.01,VWS V14.01,2013-08-02 22:01:00,
2013-08-02 17:05:00,78.0,71.0,30.00,NNE,27,2.0,6.0,79,0.01,,---,0.01,VWS V14.01,2013-08-02 22:05:00,
2013-08-02 17:06:00,78.0,71.0,30.00,NNE,27,2.0,6.0,79,0.01,,---,0.01,VWS V14.01,2013-08-02 22:06:00,
2013-08-02 17:10:00,78.1,70.3,30.01,NNE,25,4.0,7.0,77,0.01,,---,0.01,VWS V14.01,2013-08-02 22:10:00,
2013-08-02 17:11:00,78.1,70.3,30.01,NNE,25,4.0,7.0,77,0.01,,---,0.01,VWS V14.01,2013-08-02 22:11:00,
2013-08-02 17:15:00,78.0,70.2,30.01,ENE,59,0.0,8.0,77,0.01,,---,0.01,VWS V14.01,2013-08-02 22:15:00,
2013-08-02 17:16:00,78.0,70.2,30.01,ENE,59,0.0,8.0,77,0.01,,---,0.01,VWS V14.01,2013-08-02 22:16:00,
2013-08-02 17:20:00,78.0,70.2,30.01,NE,42,1.0,9.0,77,0.01,,---,0.01,VWS V14.01,2013-08-02 22:20:00,
2013-08-02 17:21:00,78.0,70.2,30.01,NE,42,1.0,9.0,77,0.01,,---,0.01,VWS V14.01,2013-08-02 22:21:00,
2013-08-02 17:25:00,78.4,71.0,30.01,NE,47,0.0,8.0,78,0.01,,---,0.01,VWS V14.01,2013-08-02 22:25:00,
2013-08-02 17:26:00,78.4,71.0,30.01,NE,47,0.0,8.0,78,0.01,,---,0.01,VWS V14.01,2013-08-02 22:26:00,
2013-08-02 17:30:00,79.1,71.3,30.01,ENE,65,7.0,7.0,77,0.01,,---,0.01,VWS V14.01,2013-08-02 22:30:00,
2013-08-02 17:31:00,79.1,71.3,30.01,ENE,65,7.0,7.0,77,0.01,,---,0.01,VWS V14.01,2013-08-02 22:31:00,
2013-08-02 17:35:00,79.5,71.3,30.00,East,90,0.0,7.0,76,0.00,,---,0.01,VWS V14.01,2013-08-02 22:35:00,
2013-08-02 17:40:00,80.1,71.1,29.99,SSW,196,1.0,2.0,74,0.00,,---,0.01,VWS V14.01,2013-08-02 22:40:00,
2013-08-02 17:41:00,80.1,71.1,29.99,SSW,196,1.0,2.0,74,0.00,,---,0.01,VWS V14.01,2013-08-02 22:41:00,
2013-08-02 17:45:00,80.6,71.6,29.98,SSW,201,0.0,2.0,74,0.00,,---,0.01,VWS V14.01,2013-08-02 22:45:00,
2013-08-02 17:46:00,80.6,71.6,29.98,SSW,201,0.0,2.0,74,0.00,,---,0.01,VWS V14.01,2013-08-02 22:46:00,
2013-08-02 17:50:00,81.1,72.0,29.98,SW,236,0.0,4.0,74,0.00,,---,0.01,VWS V14.01,2013-08-02 22:50:00,
2013-08-02 17:55:00,81.5,71.6,29.98,SW,230,0.0,4.0,72,0.00,,---,0.01,VWS V14.01,2013-08-02 22:55:00,
2013-08-02 18:00:00,82.0,71.7,29.98,SW,227,0.0,2.0,71,0.00,,---,0.01,VWS V14.01,2013-08-02 23:00:00,
2013-08-02 18:01:00,82.0,71.7,29.98,SW,227,0.0,0.0,71,0.00,,---,0.01,VWS V14.01,2013-08-02 23:01:00,
2013-08-02 18:05:00,82.3,72.0,29.98,SW,223,1.0,4.0,71,0.00,,---,0.01,VWS V14.01,2013-08-02 23:05:00,
2013-08-02 18:06:00,82.3,72.0,29.98,SW,223,0.0,1.0,71,0.00,,---,0.01,VWS V14.01,2013-08-02 23:06:00,
2013-08-02 18:10:00,82.2,71.0,29.98,SE,134,0.0,5.0,69,0.00,,---,0.01,VWS V14.01,2013-08-02 23:10:00,
2013-08-02 18:11:00,82.2,71.0,29.97,SE,134,0.0,0.0,69,0.00,,---,0.01,VWS V14.01,2013-08-02 23:11:00,
2013-08-02 18:15:00,82.1,70.9,29.98,SE,134,0.0,1.0,69,0.00,,---,0.01,VWS V14.01,2013-08-02 23:15:00,
2013-08-02 18:16:00,82.1,70.9,29.98,SE,134,0.0,0.0,69,0.00,,---,0.01,VWS V14.01,2013-08-02 23:16:00,
2013-08-02 18:20:00,82.3,71.5,29.98,SE,134,0.0,1.0,70,0.00,,---,0.01,VWS V14.01,2013-08-02 23:20:00,
2013-08-02 18:21:00,82.3,71.5,29.98,South,182,1.0,6.0,70,0.00,,---,0.01,VWS V14.01,2013-08-02 23:21:00,
2013-08-02 18:25:00,82.2,71.0,29.98,South,180,0.0,6.0,69,0.00,,---,0.01,VWS V14.01,2013-08-02 23:25:00,
2013-08-02 18:26:00,82.3,71.5,29.97,South,180,0.0,1.0,70,0.00,,---,0.01,VWS V14.01,2013-08-02 23:26:00,
2013-08-02 18:30:00,82.1,70.5,29.97,South,181,0.0,2.0,68,0.00,,---,0.01,VWS V14.01,2013-08-02 23:30:00,
2013-08-02 18:32:00,82.1,70.5,29.97,South,181,0.0,1.0,68,0.00,,---,0.01,VWS V14.01,2013-08-02 23:32:00,
2013-08-02 18:35:00,82.0,70.8,29.97,South,184,0.0,3.0,69,0.00,,---,0.01,VWS V14.01,2013-08-02 23:35:00,
2013-08-02 18:37:00,82.0,70.8,29.97,South,184,1.0,1.0,69,0.00,,---,0.01,VWS V14.01,2013-08-02 23:37:00,
2013-08-02 18:40:00,81.9,71.2,29.98,South,182,0.0,2.0,70,0.00,,---,0.01,VWS V14.01,2013-08-02 23:40:00,
2013-08-02 18:42:00,81.9,70.7,29.98,South,181,0.0,1.0,69,0.00,,---,0.01,VWS V14.01,2013-08-02 23:42:00,
2013-08-02 18:45:00,81.7,71.0,29.98,SSE,155,0.0,2.0,70,0.00,,---,0.01,VWS V14.01,2013-08-02 23:45:00,
2013-08-02 18:47:00,81.7,71.0,29.98,SSE,155,0.0,0.0,70,0.00,,---,0.01,VWS V14.01,2013-08-02 23:47:00,
2013-08-02 18:50:00,81.4,71.1,29.98,SSE,155,0.0,1.0,71,0.00,,---,0.01,VWS V14.01,2013-08-02 23:50:00,
2013-08-02 18:52:00,81.2,71.3,29.98,SSE,155,0.0,0.0,72,0.00,,---,0.01,VWS V14.01,2013-08-02 23:52:00,
2013-08-02 18:55:00,80.9,71.0,29.99,SSE,155,0.0,1.0,72,0.00,,---,0.01,VWS V14.01,2013-08-02 23:55:00,
2013-08-02 18:57:00,80.8,70.9,29.99,SSE,155,0.0,0.0,72,0.00,,---,0.01,VWS V14.01,2013-08-02 23:57:00,
2013-08-02 19:00:00,80.6,70.8,29.99,SSE,155,0.0,0.0,72,0.00,,---,0.01,VWS V14.01,2013-08-03 00:00:00,
2013-08-02 19:02:00,80.5,71.1,29.99,SSE,155,0.0,0.0,73,0.00,,---,0.01,VWS V14.01,2013-08-03 00:02:00,
2013-08-02 19:05:00,80.4,71.0,29.99,SSE,155,0.0,1.0,73,0.00,,---,0.01,VWS V14.01,2013-08-03 00:05:00,
2013-08-02 19:07:00,80.4,71.4,29.99,SSE,155,0.0,1.0,74,0.00,,---,0.01,VWS V14.01,2013-08-03 00:07:00,
2013-08-02 19:10:00,80.6,71.2,29.99,SSE,155,0.0,1.0,73,0.00,,---,0.01,VWS V14.01,2013-08-03 00:10:00,
2013-08-02 19:12:00,80.6,71.2,29.99,SSE,155,0.0,0.0,73,0.00,,---,0.01,VWS V14.01,2013-08-03 00:12:00,
2013-08-02 19:15:00,80.7,70.8,29.98,SE,128,0.0,1.0,72,0.00,,---,0.01,VWS V14.01,2013-08-03 00:15:00,
2013-08-02 19:17:00,80.7,70.8,29.99,SE,128,0.0,0.0,72,0.00,,---,0.01,VWS V14.01,2013-08-03 00:17:00,
2013-08-02 19:20:00,80.8,71.3,29.99,SE,128,0.0,0.0,73,0.00,,---,0.01,VWS V14.01,2013-08-03 00:20:00,
2013-08-02 19:22:00,80.9,71.4,29.99,SE,128,0.0,0.0,73,0.00,,---,0.01,VWS V14.01,2013-08-03 00:22:00,
2013-08-02 19:25:00,80.9,70.6,29.99,SE,128,0.0,0.0,71,0.00,,---,0.01,VWS V14.01,2013-08-03 00:25:00,
2013-08-02 19:27:00,80.9,70.6,29.99,SE,128,0.0,0.0,71,0.00,,---,0.01,VWS V14.01,2013-08-03 00:27:00,
2013-08-02 19:30:00,80.8,70.9,29.99,SE,128,0.0,0.0,72,0.00,,---,0.01,VWS V14.01,2013-08-03 00:30:00,
2013-08-02 19:32:00,80.8,70.5,29.99,SE,128,0.0,0.0,71,0.00,,---,0.01,VWS V14.01,2013-08-03 00:32:00,
2013-08-02 19:35:00,80.7,70.4,29.99,SE,128,0.0,0.0,71,0.00,,---,0.01,VWS V14.01,2013-08-03 00:35:00,
2013-08-02 19:37:00,80.6,70.3,29.99,SE,128,0.0,0.0,71,0.00,,---,0.01,VWS V14.01,2013-08-03 00:37:00,
2013-08-02 19:40:00,80.6,70.3,29.99,SE,128,0.0,0.0,71,0.00,,---,0.01,VWS V14.01,2013-08-03 00:40:00,
2013-08-02 19:42:00,80.6,70.8,29.99,SE,128,0.0,1.0,72,0.00,,---,0.01,VWS V14.01,2013-08-03 00:42:00,
2013-08-02 19:45:00,80.5,70.7,30.00,SE,128,0.0,1.0,72,0.00,,---,0.01,VWS V14.01,2013-08-03 00:45:00,
2013-08-02 19:48:00,80.3,70.1,30.00,SE,128,0.0,0.0,71,0.00,,---,0.01,VWS V14.01,2013-08-03 00:48:00,
2013-08-02 19:50:00,79.9,70.1,30.00,SE,128,0.0,0.0,72,0.00,,---,0.01,VWS V14.01,2013-08-03 00:50:00,
2013-08-02 19:53:00,79.5,69.7,30.00,SE,128,0.0,2.0,72,0.00,,---,0.01,VWS V14.01,2013-08-03 00:53:00,
2013-08-02 19:55:00,79.0,69.6,30.00,SE,128,0.0,2.0,73,0.00,,---,0.01,VWS V14.01,2013-08-03 00:55:00,
2013-08-02 19:58:00,78.6,69.2,30.00,ESE,122,0.0,2.0,73,0.00,,---,0.01,VWS V14.01,2013-08-03 00:58:00,
2013-08-02 20:00:00,78.3,69.3,30.01,ESE,121,0.0,2.0,74,0.00,,---,0.01,VWS V14.01,2013-08-03 01:00:00,
2013-08-02 20:03:00,78.0,69.1,30.01,ESE,121,0.0,0.0,74,0.00,,---,0.01,VWS V14.01,2013-08-03 01:03:00,
2013-08-02 20:05:00,77.8,69.2,30.01,ESE,121,0.0,0.0,75,0.00,,---,0.01,VWS V14.01,2013-08-03 01:05:00,
2013-08-02 20:08:00,77.6,69.1,30.01,ESE,121,0.0,0.0,75,0.00,,---,0.01,VWS V14.01,2013-08-03 01:08:00,
2013-08-02 20:10:00,77.2,68.7,30.01,ESE,121,0.0,0.0,75,0.00,,---,0.01,VWS V14.01,2013-08-03 01:10:00,
2013-08-02 20:13:00,76.9,68.4,30.01,ESE,119,3.0,4.0,75,0.00,,---,0.01,VWS V14.01,2013-08-03 01:13:00,
2013-08-02 20:15:00,76.6,68.5,30.01,ESE,118,0.0,4.0,76,0.00,,---,0.01,VWS V14.01,2013-08-03 01:15:00,
2013-08-02 20:18:00,76.3,68.2,30.01,ESE,118,0.0,0.0,76,0.00,,---,0.01,VWS V14.01,2013-08-03 01:18:00,
2013-08-02 20:20:00,75.9,67.8,30.01,ESE,118,0.0,0.0,76,0.00,,---,0.01,VWS V14.01,2013-08-03 01:20:00,
2013-08-02 20:23:00,75.6,67.9,30.02,ESE,118,0.0,0.0,77,0.00,,---,0.01,VWS V14.01,2013-08-03 01:23:00,
2013-08-02 20:25:00,75.2,67.5,30.02,ESE,112,0.0,2.0,77,0.00,,---,0.01,VWS V14.01,2013-08-03 01:25:00,
2013-08-02 20:28:00,74.7,67.0,30.02,East,90,0.0,5.0,77,0.00,,---,0.01,VWS V14.01,2013-08-03 01:28:00,
2013-08-02 20:30:00,74.4,67.1,30.02,East,89,0.0,5.0,78,0.00,,---,0.01,VWS V14.01,2013-08-03 01:30:00,
2013-08-02 20:33:00,73.9,66.6,30.02,East,86,3.0,3.0,78,0.00,,---,0.01,VWS V14.01,2013-08-03 01:33:00,
2013-08-02 20:35:00,73.6,66.7,30.02,East,86,1.0,4.0,79,0.00,,---,0.01,VWS V14.01,2013-08-03 01:35:00,
2013-08-02 20:38:00,73.2,66.7,30.02,East,86,0.0,1.0,80,0.00,,---,0.01,VWS V14.01,2013-08-03 01:38:00,
2013-08-02 20:40:00,73.0,66.5,30.02,East,86,0.0,1.0,80,0.00,,---,0.01,VWS V14.01,2013-08-03 01:40:00,
2013-08-02 20:44:00,72.6,66.1,30.03,East,84,0.0,5.0,80,0.00,,---,0.01,VWS V14.01,2013-08-03 01:44:00,
2013-08-02 20:45:00,72.5,66.3,30.03,East,84,0.0,5.0,81,0.00,,---,0.01,VWS V14.01,2013-08-03 01:45:00,
2013-08-02 20:49:00,72.2,66.1,30.03,East,84,0.0,1.0,81,0.00,,---,0.01,VWS V14.01,2013-08-03 01:49:00,
2013-08-02 20:50:00,72.1,65.9,30.03,East,84,0.0,1.0,81,0.00,,---,0.01,VWS V14.01,2013-08-03 01:50:00,
2013-08-02 20:54:00,71.8,65.7,30.03,East,84,0.0,0.0,81,0.00,,---,0.01,VWS V14.01,2013-08-03 01:54:00,
2013-08-02 20:55:00,71.6,65.5,30.03,East,84,0.0,0.0,81,0.00,,---,0.01,VWS V14.01,2013-08-03 01:55:00,
2013-08-02 20:59:00,71.3,65.2,30.03,East,84,0.0,1.0,81,0.00,,---,0.01,VWS V14.01,2013-08-03 01:59:00,
2013-08-02 21:00:00,71.1,65.3,30.04,East,84,0.0,1.0,82,0.00,,---,0.01,VWS V14.01,2013-08-03 02:00:00,
2013-08-02 21:04:00,70.9,65.5,30.04,East,85,0.0,1.0,83,0.00,,---,0.01,VWS V14.01,2013-08-03 02:04:00,
2013-08-02 21:05:00,70.7,64.9,30.04,East,84,0.0,2.0,82,0.00,,---,0.01,VWS V14.01,2013-08-03 02:05:00,
2013-08-02 21:09:00,70.4,65.0,30.04,East,82,2.0,4.0,83,0.00,,---,0.01,VWS V14.01,2013-08-03 02:09:00,
2013-08-02 21:10:00,70.2,64.8,30.04,East,82,0.0,4.0,83,0.00,,---,0.01,VWS V14.01,2013-08-03 02:10:00,
2013-08-02 21:14:00,69.9,64.5,30.04,East,82,0.0,1.0,83,0.00,,---,0.01,VWS V14.01,2013-08-03 02:14:00,
2013-08-02 21:15:00,69.8,64.4,30.04,East,82,0.0,1.0,83,0.00,,---,0.01,VWS V14.01,2013-08-03 02:15:00,
2013-08-02 21:19:00,69.6,64.2,30.05,East,82,0.0,1.0,83,0.00,,---,0.01,VWS V14.01,2013-08-03 02:19:00,
2013-08-02 21:20:00,69.6,64.2,30.05,East,82,0.0,1.0,83,0.00,,---,0.01,VWS V14.01,2013-08-03 02:20:00,
2013-08-02 21:24:00,69.4,64.4,30.05,East,82,0.0,0.0,84,0.00,,---,0.01,VWS V14.01,2013-08-03 02:24:00,
2013-08-02 21:25:00,69.3,64.3,30.06,East,82,0.0,2.0,84,0.00,,---,0.01,VWS V14.01,2013-08-03 02:25:00,
2013-08-02 21:29:00,69.1,64.1,30.06,East,82,0.0,1.0,84,0.00,,---,0.01,VWS V14.01,2013-08-03 02:29:00,
2013-08-02 21:30:00,69.0,64.0,30.06,NE,54,0.0,6.0,84,0.00,,---,0.01,VWS V14.01,2013-08-03 02:30:00,
2013-08-02 21:34:00,68.8,63.8,30.06,NE,54,0.0,0.0,84,0.00,,---,0.01,VWS V14.01,2013-08-03 02:34:00,
2013-08-02 21:35:00,68.7,63.7,30.06,NE,54,0.0,0.0,84,0.00,,---,0.01,VWS V14.01,2013-08-03 02:35:00,
2013-08-02 21:39:00,68.5,63.1,30.06,East,86,0.0,8.0,83,0.00,,---,0.01,VWS V14.01,2013-08-03 02:39:00,
2013-08-02 21:40:00,68.4,63.0,30.07,East,88,0.0,8.0,83,0.00,,---,0.01,VWS V14.01,2013-08-03 02:40:00,
2013-08-02 21:44:00,68.2,62.8,30.07,East,88,0.0,0.0,83,0.00,,---,0.01,VWS V14.01,2013-08-03 02:44:00,
2013-08-02 21:45:00,68.2,62.8,30.07,ENE,75,3.0,4.0,83,0.00,,---,0.01,VWS V14.01,2013-08-03 02:45:00,
2013-08-02 21:49:00,68.0,62.7,30.07,ENE,75,0.0,3.0,83,0.00,,---,0.01,VWS V14.01,2013-08-03 02:49:00,
2013-08-02 21:50:00,67.9,62.5,30.07,ENE,75,0.0,3.0,83,0.00,,---,0.01,VWS V14.01,2013-08-03 02:50:00,
2013-08-02 21:54:00,67.8,62.5,30.07,ENE,76,0.0,1.0,83,0.00,,---,0.01,VWS V14.01,2013-08-03 02:54:00,
2013-08-02 21:55:00,67.7,62.7,30.07,ENE,76,0.0,1.0,84,0.00,,---,0.01,VWS V14.01,2013-08-03 02:55:00,
2013-08-02 21:59:00,67.6,62.6,30.07,ENE,61,0.0,2.0,84,0.00,,---,0.01,VWS V14.01,2013-08-03 02:59:00,
2013-08-02 22:00:00,67.6,62.6,30.07,NE,48,0.0,5.0,84,0.00,,---,0.01,VWS V14.01,2013-08-03 03:00:00,
2013-08-02 22:04:00,67.5,62.5,30.07,NE,48,0.0,1.0,84,0.00,,---,0.01,VWS V14.01,2013-08-03 03:04:00,
2013-08-02 22:05:00,67.4,62.4,30.07,NE,48,0.0,1.0,84,0.00,,---,0.01,VWS V14.01,2013-08-03 03:05:00,
2013-08-02 22:10:00,67.3,62.3,30.07,NE,48,0.0,0.0,84,0.00,,---,0.01,VWS V14.01,2013-08-03 03:10:00,
2013-08-02 22:15:00,67.1,62.5,30.07,NE,48,0.0,1.0,85,0.00,,---,0.01,VWS V14.01,2013-08-03 03:15:00,
2013-08-02 22:20:00,66.9,62.2,30.08,NE,48,0.0,0.0,85,0.00,,---,0.01,VWS V14.01,2013-08-03 03:20:00,
2013-08-02 22:25:00,66.7,62.0,30.08,NE,47,0.0,1.0,85,0.00,,---,0.01,VWS V14.01,2013-08-03 03:25:00,
2013-08-02 22:30:00,66.6,62.0,30.08,NE,53,1.0,2.0,85,0.00,,---,0.01,VWS V14.01,2013-08-03 03:30:00,
2013-08-02 22:35:00,66.5,61.9,30.08,NE,53,0.0,1.0,85,0.00,,---,0.01,VWS V14.01,2013-08-03 03:35:00,
2013-08-02 22:40:00,66.3,61.7,30.08,NE,53,0.0,0.0,85,0.00,,---,0.01,VWS V14.01,2013-08-03 03:40:00,
2013-08-02 22:45:00,66.2,61.6,30.08,NE,53,0.0,1.0,85,0.00,,---,0.01,VWS V14.01,2013-08-03 03:45:00,
2013-08-02 22:50:00,66.0,61.4,30.08,NE,53,0.0,1.0,85,0.00,,---,0.01,VWS V14.01,2013-08-03 03:50:00,
2013-08-02 22:55:00,65.9,61.3,30.08,NE,53,0.0,2.0,85,0.00,,---,0.01,VWS V14.01,2013-08-03 03:55:00,
2013-08-02 23:00:00,65.8,61.5,30.08,NE,53,0.0,1.0,86,0.00,,---,0.01,VWS V14.01,2013-08-03 04:00:00,
2013-08-02 23:01:00,65.8,61.5,30.08,NE,53,0.0,0.0,86,0.00,,---,0.01,VWS V14.01,2013-08-03 04:01:00,
2013-08-02 23:02:00,65.7,61.4,30.08,NE,53,0.0,0.0,86,0.00,,---,0.01,VWS V14.01,2013-08-03 04:02:00,
2013-08-02 23:03:00,65.7,61.4,30.08,NE,53,0.0,1.0,86,0.00,,---,0.01,VWS V14.01,2013-08-03 04:03:00,
2013-08-02 23:05:00,65.6,61.3,30.08,NE,53,0.0,1.0,86,0.00,,---,0.01,VWS V14.01,2013-08-03 04:05:00,
2013-08-02 23:08:00,65.6,61.3,30.08,ENE,71,0.0,2.0,86,0.00,,---,0.01,VWS V14.01,2013-08-03 04:08:00,
2013-08-02 23:10:00,65.5,61.2,30.08,ENE,71,0.0,2.0,86,0.00,,---,0.01,VWS V14.01,2013-08-03 04:10:00,
2013-08-02 23:14:00,65.4,61.4,30.08,ENE,71,0.0,0.0,87,0.00,,---,0.01,VWS V14.01,2013-08-03 04:14:00,
2013-08-02 23:15:00,65.3,61.3,30.08,ENE,65,0.0,7.0,87,0.00,,---,0.01,VWS V14.01,2013-08-03 04:15:00,
2013-08-02 23:19:00,65.2,61.2,30.08,ENE,64,0.0,1.0,87,0.00,,---,0.01,VWS V14.01,2013-08-03 04:19:00,
2013-08-02 23:20:00,65.2,61.2,30.08,ENE,64,0.0,1.0,87,0.00,,---,0.01,VWS V14.01,2013-08-03 04:20:00,
2013-08-02 23:24:00,65.1,61.1,30.08,ENE,64,0.0,1.0,87,0.00,,---,0.01,VWS V14.01,2013-08-03 04:24:00,
2013-08-02 23:25:00,65.1,61.5,30.08,ENE,64,0.0,1.0,88,0.00,,---,0.01,VWS V14.01,2013-08-03 04:25:00,
2013-08-02 23:29:00,65.1,61.5,30.08,ENE,64,0.0,0.0,88,0.00,,---,0.01,VWS V14.01,2013-08-03 04:29:00,
2013-08-02 23:30:00,65.0,61.4,30.08,ENE,64,0.0,0.0,88,0.00,,---,0.01,VWS V14.01,2013-08-03 04:30:00,
2013-08-02 23:34:00,65.1,61.5,30.08,ENE,64,0.0,1.0,88,0.00,,---,0.01,VWS V14.01,2013-08-03 04:34:00,
2013-08-02 23:35:00,65.1,61.5,30.08,ENE,64,0.0,1.0,88,0.00,,---,0.01,VWS V14.01,2013-08-03 04:35:00,
2013-08-02 23:39:00,65.1,61.5,30.08,ENE,64,0.0,0.0,88,0.00,,---,0.01,VWS V14.01,2013-08-03 04:39:00,
2013-08-02 23:40:00,65.2,61.6,30.08,ENE,64,0.0,1.0,88,0.00,,---,0.01,VWS V14.01,2013-08-03 04:40:00,
2013-08-02 23:44:00,65.3,61.7,30.09,ENE,67,0.0,0.0,88,0.00,,---,0.01,VWS V14.01,2013-08-03 04:44:00,
2013-08-02 23:45:00,65.3,61.3,30.09,ENE,67,0.0,0.0,87,0.00,,---,0.01,VWS V14.01,2013-08-03 04:45:00,
2013-08-02 23:49:00,65.4,61.4,30.08,ENE,65,0.0,4.0,87,0.00,,---,0.01,VWS V14.01,2013-08-03 04:49:00,
2013-08-02 23:50:00,65.5,61.5,30.08,ENE,65,0.0,4.0,87,0.00,,---,0.01,VWS V14.01,2013-08-03 04:50:00,
2013-08-02 23:54:00,65.6,61.6,30.09,ENE,65,0.0,1.0,87,0.00,,---,0.01,VWS V14.01,2013-08-03 04:54:00,
2013-08-02 23:55:00,65.6,61.6,30.09,ENE,65,0.0,1.0,87,0.00,,---,0.01,VWS V14.01,2013-08-03 04:55:00,
2013-08-02 23:59:00,65.7,61.7,30.09,ENE,65,0.0,0.0,87,0.00,,---,0.01,VWS V14.01,2013-08-03 04:59:00,